CW8826 Weather Reports


Display with metric or nautical units.
time (UTC)temp
F
wind
direction
speed
MPH
gust
MPH
rain 1hr
in
rain 24hr
in
rain mn
in
humidity
%
barometer
mb
20260506051037 51 113 9.0 14.0 0.00 0.01 0.01 58 1010.2
20260506045017 51 113 8.0 13.0 0.00 0.01 0.01 57 1009.7
20260506044018 50 113 8.0 15.0 0.00 0.01 0.01 60 1009.5
20260506043017 50 113 7.0 11.0 0.00 0.01 0.01 61 1009.4
20260506042017 51 113 6.0 14.0 0.00 0.01 0.01 60 1009.5
20260506041017 52 113 6.0 11.0 0.00 0.01 0.01 57 1009.8
20260506040017 52 113 6.0 12.0 0.00 0.01 0.01 58 1009.8
20260506035018 51 113 5.0 14.0 0.00 0.01 0.01 61 1009.4
20260506034017 52 90 4.0 9.0 0.00 0.01 0.01 59 1009.4
20260506033017 52 90 6.0 12.0 0.00 0.01 0.01 59 1008.9
20260506032017 52 113 7.0 11.0 0.00 0.01 0.01 60 1009.0
20260506031017 53 113 6.0 11.0 0.00 0.01 0.01 57 1009.2
20260506030017 53 113 3.0 8.0 0.00 0.01 0.01 58 1009.1
20260506025037 53 135 2.0 6.0 0.00 0.01 0.01 57 1008.8
20260506024037 54 113 5.0 11.0 0.00 0.01 0.01 57 1008.8
20260506023017 56 90 3.0 6.0 0.00 0.01 0.01 53 1008.6
20260506022017 57 270 1.0 4.0 0.00 0.01 0.01 52 1008.7
20260506021018 58 90 2.0 6.0 0.00 0.01 0.01 50 1009.0
20260506020017 58 225 2.0 5.0 0.00 0.01 0.01 49 1008.6
20260506015017 59 248 3.0 5.0 0.00 0.01 0.01 47 1009.0
20260506014018 60 248 2.0 4.0 0.00 0.01 0.01 45 1009.0
20260506013017 61 270 1.0 3.0 0.00 0.01 0.01 42 1009.2
20260506012038 61 248 2.0 4.0 0.00 0.01 0.01 41 1009.2
20260506011017 61 225 2.0 3.0 0.00 0.01 0.01 41 1009.3
20260506010017 61 270 1.0 4.0 0.00 0.01 0.01 41 1009.6
20260506005018 61 225 2.0 4.0 0.00 0.01 0.01 41 1009.7
20260506004017 61 270 2.0 4.0 0.00 0.01 0.01 42 1009.7
20260506003037 60 248 2.0 6.0 0.00 0.01 0.01 43 1009.7
20260506002017 60 135 2.0 4.0 0.00 0.01 0.01 45 1009.7
20260506001017 60 293 2.0 7.0 0.00 0.01 0.01 47 1009.5
20260506000017 60 135 2.0 5.0 0.00 0.01 0.01 48 1009.8
20260505235018 59 248 4.0 9.0 0.00 0.01 0.01 48 1009.8
20260505234018 59 248 2.0 4.0 0.00 0.01 0.01 46 1009.7
20260505233037 60 180 2.0 8.0 0.00 0.01 0.01 49 1009.8
20260505232017 58 248 2.0 5.0 0.00 0.01 0.01 52 1009.6
20260505231017 57 293 1.0 4.0 0.00 0.01 0.01 55 1009.6
20260505230017 55 135 2.0 6.0 0.00 0.01 0.01 59 1009.5
20260505225057 55 90 5.0 10.0 0.00 0.01 0.01 59 1009.5
20260505224018 54 135 6.0 10.0 0.01 0.01 0.01 59 1009.7
20260505223017 54 45 3.0 8.0 0.01 0.01 0.01 60 1009.8
20260505222017 54 113 2.0 5.0 0.01 0.01 0.01 61 1009.6
20260505221018 53 45 7.0 14.0 0.01 0.01 0.01 62 1009.6
20260505220017 52 45 3.0 11.0 0.01 0.02 0.01 65 1009.4
20260505215037 51 68 4.0 9.0 0.01 0.02 0.01 66 1009.6
20260505214017 52 45 3.0 9.0 0.00 0.03 0.00 62 1009.6
20260505213017 52 90 4.0 8.0 0.00 0.07 0.00 61 1009.5
20260505212057 52 45 3.0 7.0 0.00 0.08 0.00 64 1009.5
20260505211017 53 45 3.0 7.0 0.00 0.08 0.00 64 1009.7
20260505210016 53 315 3.0 7.0 0.00 0.08 0.00 68 1009.8
20260505205017 54 23 2.0 6.0 0.00 0.08 0.00 63 1009.6
20260505204016 54 0 2.0 4.0 0.00 0.08 0.00 61 1009.9
20260505203016 54 338 2.0 7.0 0.00 0.08 0.00 61 1009.9
20260505202016 54 315 2.0 7.0 0.00 0.08 0.00 59 1010.0
20260505201017 54 338 3.0 5.0 0.00 0.08 0.00 59 1009.9
20260505200016 55 248 2.0 6.0 0.00 0.08 0.00 59 1009.9
20260505195037 55 158 2.0 5.0 0.00 0.08 0.00 55 1009.8
20260505194037 54 293 3.0 8.0 0.00 0.08 0.00 58 1009.8
20260505193016 54 338 3.0 8.0 0.00 0.08 0.00 60 1009.6
20260505192017 54 315 1.0 5.0 0.00 0.08 0.00 56 1009.5
20260505191016 53 0.0 1.0 0.00 0.08 0.00 54 1009.5
20260505190017 53 0.0 2.0 0.00 0.08 0.00 54 1009.4
20260505185037 53 0.0 3.0 0.00 0.08 0.00 52 1009.4
20260505184017 54 225 3.0 8.0 0.00 0.08 0.00 52 1009.4
20260505183017 54 248 1.0 5.0 0.00 0.08 0.00 52 1009.3
20260505182016 54 293 2.0 6.0 0.00 0.08 0.00 51 1009.2
20260505181021 54 248 3.0 9.0 0.00 0.08 0.00 51 1009.2
20260505180017 54 248 2.0 7.0 0.00 0.08 0.00 53 1009.4
20260505175017 53 248 2.0 8.0 0.00 0.08 0.00 54 1009.2
20260505174017 53 225 4.0 10.0 0.00 0.08 0.00 54 1009.1
20260505173016 53 225 3.0 8.0 0.00 0.08 0.00 54 1009.7
20260505172037 53 225 4.0 9.0 0.00 0.08 0.00 54 1009.7
20260505171016 53 225 6.0 13.0 0.00 0.08 0.00 54 1009.5
20260505170017 53 225 7.0 15.0 0.00 0.08 0.00 54 1009.5
20260505165016 53 225 5.0 11.0 0.00 0.08 0.00 54 1009.4
20260505164016 53 225 4.0 9.0 0.00 0.08 0.00 53 1009.4
20260505163016 53 248 3.0 6.0 0.00 0.08 0.00 53 1009.8
20260505162018 53 225 1.0 4.0 0.00 0.08 0.00 56 1009.6
20260505161017 52 135 1.0 4.0 0.00 0.08 0.00 57 1009.2
20260505153036 52 315 2.0 5.0 0.00 0.08 0.00 63 1009.2
20260505152037 52 0.0 1.0 0.00 0.08 0.00 64 1009.2
20260505151016 52 113 1.0 3.0 0.00 0.08 0.00 67 1009.1
20260505125017 50 113 4.0 12.0 0.00 0.08 0.00 70 1008.5
20260505124016 51 90 4.0 8.0 0.00 0.08 0.00 71 1008.4
20260505123017 51 113 5.0 14.0 0.00 0.08 0.00 69 1008.2
20260505122017 51 90 7.0 12.0 0.00 0.08 0.00 74 1008.2
20260505121016 52 113 4.0 6.0 0.00 0.08 0.00 69 1008.1
20260505120036 52 135 4.0 8.0 0.00 0.08 0.00 68 1007.7
20260505115017 53 90 5.0 10.0 0.00 0.08 0.00 66 1008.0
20260505114036 53 90 5.0 10.0 0.00 0.08 0.00 63 1007.9
20260505113016 53 113 3.0 7.0 0.00 0.08 0.00 63 1007.9
20260505112016 52 270 1.0 2.0 0.00 0.08 0.00 63 1007.9
20260505111016 53 0.0 0.0 0.00 0.08 0.00 64 1008.0
20260505102037 54 135 1.0 3.0 0.00 0.08 0.00 58 1007.8
20260505101016 54 135 1.0 2.0 0.00 0.08 0.00 59 1007.7
20260505100017 54 135 2.0 3.0 0.00 0.08 0.00 58 1007.8
20260505095016 54 135 1.0 3.0 0.00 0.08 0.00 60 1008.9
20260505094016 53 135 2.0 5.0 0.00 0.08 0.00 62 1008.6
20260505093016 53 135 3.0 7.0 0.00 0.08 0.00 65 1008.6
20260505092016 54 90 5.0 7.0 0.00 0.08 0.00 63 1009.1
20260505091016 53 113 1.0 3.0 0.00 0.08 0.00 65 1009.0
20260505090016 53 0.0 0.0 0.00 0.08 0.00 67 1009.1
20260505085016 54 113 3.0 8.0 0.00 0.08 0.00 63 1009.2
20260505084016 54 113 1.0 3.0 0.00 0.08 0.00 62 1009.3
20260505083037 54 113 2.0 4.0 0.00 0.08 0.00 62 1009.1
20260505082017 54 0.0 0.0 0.00 0.08 0.00 63 1009.6
20260505081016 54 0.0 1.0 0.00 0.08 0.00 63 1009.6
20260505080017 54 0.0 2.0 0.00 0.08 0.00 63 1009.5
20260505075016 54 0.0 0.0 0.00 0.08 0.00 62 1009.5
20260505074016 54 23 1.0 5.0 0.00 0.08 0.00 63 1009.4
20260505073016 54 23 3.0 6.0 0.00 0.08 0.00 64 1009.3
20260505072016 54 0.0 1.0 0.00 0.08 0.00 64 1009.2
20260505071016 54 113 3.0 6.0 0.00 0.08 0.00 64 1009.1
20260505070016 53 113 2.0 4.0 0.00 0.08 0.00 65 1009.1
20260505065036 53 0.0 2.0 0.00 0.08 0.00 65 1008.7
20260505064016 54 0.0 2.0 0.00 0.08 0.00 64 1009.1
20260505063036 53 45 4.0 6.0 0.00 0.08 0.00 63 1008.7
20260505062016 53 0 1.0 3.0 0.00 0.08 0.00 62 1008.7
20260505061036 53 45 1.0 3.0 0.00 0.08 0.00 61 1008.7
20260505060016 53 45 2.0 4.0 0.00 0.08 0.08 61 1008.5